sat.trackr.live / text

‹ back to catalog

COSMOS 2486

NORAD 39177 · 2013-028A

PAYLOAD ACTIVE UNKNOWN

§ Identity

Operator
Country
CIS
Launch date
2013-06-07
Launch site
PLMSC
Launch vehicle
Mass (kg)
RCS (m²)
16.05

External: N2YO · Heavens-Above · Gunter

§ Orbital elements

Epoch: 2026-05-25T04:49:03.218880Z

Period
98.89 min
Inclination
98.0127°
Eccentricity
0.0012322
Mean motion
14.56183161 rev/d
Perigee alt
696.8 km
Apogee alt
714.3 km
Semi-major
7,083.7 km
B*
9.2515e-5
RAAN
113.4958°
Arg perigee
87.3208°
Mean anomaly
272.9401°
Rev number
68,803

§ Raw data

COSMOS 24861 39177U 13028A   26145.20073170  .00000365  00000+0  92515-4 0  99982 39177  98.0127 113.4958 0012322  87.3208 272.9401 14.56183161688031

JSON: /api/v1/satellites/39177 · /tle

For live sub-satellite position, see the globe view (requires WebGL).

§ Visibility from observer

Set your observer location to see the next 7 days of passes ≥ 10°. The values pass through the URL so the page stays shareable.

No JS? Fill the form by hand. The geolocation button needs JavaScript.